Powrót do katalogu

TIROS 4

AktywnyPogodaLEO
NORAD 226·PAYLOAD·🇺🇸 United States

Wystrzelony Feb 8, 1962 z Cape Canaveral Space Force Station

Loading…

Następne Przeloty (najbliższe 24 godziny)

TLE

ŚwieżeSource: Space-Track

Epoka: Sep 9, 2026, 06:22 UTC

1 00226U 62002A   26252.26544805 -.00000012  00000-0  42633-4 0  9997
2 00226  48.2977 350.1472 0076552 238.9922 120.3443 14.47214239380624

Śledź TIROS 4 w czasie rzeczywistym z AllMySat

Download on the App Store